Wind_Speed
35 36 37 38 39 40 40 40 40 42 43 44 44 45 45 46 47 47 47 47 47 47 47 46 46 46 47 47 47 46 46 45 45 45 45 44 43 43 43 43 42 41 42
36 37 38 39 40 41 42 42 42 42 43 44 45 46 47 47 48 48 48 48 48 48 47 48 47 47 47 48 48 48 47 47 47 47 47 47 45 44 45 44 43 43 43
37 38 39 40 40 41 42 42 42 43 43 44 45 46 47 48 48 48 49 49 49 49 49 49 49 49 49 49 49 49 49 49 49 49 49 48 47 47 46 46 46 45 45
38 39 40 41 41 41 43 43 43 43 44 45 45 45 47 47 48 49 50 50 51 51 50 50 50 51 51 51 50 50 51 52 51 51 52 51 50 50 49 48 47 47 47
37 38 40 41 41 41 42 42 42 42 43 44 45 45 45 47 47 48 49 50 51 52 52 52 52 53 53 52 52 53 53 54 53 53 53 53 53 52 52 51 49 49 49
36 37 38 40 41 41 41 42 42 42 43 44 45 45 45 47 47 47 48 48 49 51 52 52 52 53 53 53 54 54 54 55 55 54 54 55 54 54 54 53 52 52 52
36 37 38 39 41 42 42 43 43 43 44 45 46 46 46 47 47 46 47 47 48 49 50 51 52 53 54 54 55 56 55 56 56 56 55 55 56 55 55 55 54 54 53
36 37 38 40 41 42 43 44 45 45 45 46 47 47 47 47 47 46 47 48 49 49 50 52 52 53 54 56 56 57 56 56 57 57 56 56 56 56 56 56 55 55 54
36 38 39 41 42 42 43 44 45 46 46 46 47 47 47 47 48 48 48 49 49 50 51 52 52 53 54 56 57 57 57 57 58 58 58 57 56 56 56 56 56 55 55
38 39 41 41 42 43 43 44 45 46 46 46 47 47 47 48 49 50 50 51 51 51 52 52 52 53 54 55 57 58 58 59 58 58 58 58 57 57 57 56 56 55 55
38 39 41 41 42 42 43 43 44 45 46 46 47 48 48 49 49 50 51 51 52 52 53 53 52 52 53 54 56 57 58 58 58 57 57 57 56 57 56 56 56 56 54
39 40 41 42 42 42 43 44 44 46 46 47 48 48 48 49 50 50 51 52 52 52 53 54 54 54 53 54 55 56 57 58 57 56 56 56 55 55 54 54 55 54 54
40 40 41 42 42 43 43 44 44 45 46 47 48 48 49 50 50 51 51 52 52 52 52 54 54 54 55 55 55 56 56 56 56 55 55 54 54 54 54 54 54 54 53
41 41 41 42 43 43 44 44 44 45 45 46 47 48 50 50 51 51 51 51 51 50 51 52 53 52 53 55 55 56 55 54 53 53 53 52 52 52 53 53 53 52 52
41 42 42 42 43 43 44 44 45 45 45 46 47 48 49 50 50 50 50 49 49 49 49 49 50 52 53 53 53 54 54 52 52 51 51 51 51 52 52 52 51 51 51
42 43 44 44 44 43 43 44 45 46 47 47 48 49 49 49 48 49 49 50 50 50 49 49 50 51 52 51 50 51 51 51 50 49 49 49 50 50 51 51 50 50 50
43 43 44 44 44 44 44 45 45 47 48 49 49 48 47 47 47 48 49 50 49 49 50 50 50 50 50 49 48 48 49 50 49 49 48 48 48 48 49 49 50 50 50
44 44 44 44 45 45 45 45 46 47 47 48 48 48 46 46 46 47 48 49 49 49 49 49 49 48 48 48 47 48 48 48 48 49 48 46 46 47 48 49 50 50 49
45 44 44 44 44 44 44 45 45 46 47 47 47 46 46 46 47 47 47 48 48 47 47 48 47 47 46 47 47 47 47 47 46 45 45 45 46 45 46 47 47 47 47
46 45 44 44 44 44 44 44 44 45 45 44 43 44 44 45 46 46 46 46 46 46 47 46 46 45 45 44 44 44 44 44 44 44 44 45 45 44 45 45 45 46 46
45 45 45 45 44 44 44 44 44 44 43 42 42 43 44 45 45 45 45 45 44 44 44 43 44 44 43 42 41 41 42 42 42 42 43 43 44 44 43 43 43 43 44
45 46 46 45 44 44 44 44 44 43 43 42 42 42 43 43 44 43 43 44 44 43 42 42 42 42 41 40 40 41 41 41 41 41 41 42 42 43 42 42 42 42 43
45 46 46 45 44 44 44 44 43 42 42 41 41 41 41 41 41 41 41 40 40 40 39 39 39 39 39 39 38 39 39 38 39 39 39 40 40 41 41 41 41 41 41
44 44 44 44 44 44 44 43 43 43 41 40 40 39 39 38 38 37 37 36 36 36 36 35 35 36 36 36 36 36 36 37 37 37 38 38 39 40 39 38 37 37 37
43 43 42 42 42 42 42 42 41 41 40 40 39 38 38 36 35 34 33 33 33 33 33 33 33 32 32 32 33 34 33 34 35 35 36 36 36 36 36 35 35 34 34
42 41 41 41 41 40 40 40 40 39 38 38 37 36 35 34 33 32 31 31 32 32 31 31 30 30 29 29 30 30 31 31 32 33 34 34 34 34 33 33 33 33 33
Wind_Direction
260 259 258 258 258 259 260 261 261 262 262 262 261 262 262 262 262 262 262 262 262 262 262 262 262 261 261 260 260 260 260 261 262 263 264 265 267 268 269 270 270 272 273
263 261 259 260 261 261 262 262 263 263 264 263 263 262 262 262 262 262 262 262 260 261 262 262 261 261 260 260 259 259 260 261 262 263 265 265 266 267 269 269 269 270 271
265 263 261 262 263 263 263 264 265 265 265 265 264 263 262 263 262 262 262 261 260 260 261 261 261 261 260 260 260 260 260 261 262 264 265 265 266 266 267 268 269 269 271
267 265 263 264 263 264 265 265 266 266 267 267 266 265 264 265 264 263 262 261 260 260 260 261 261 261 261 260 259 260 262 262 262 263 264 265 266 267 268 267 268 269 270
269 267 266 266 265 265 265 266 267 267 267 268 268 267 266 266 265 264 263 262 261 260 260 260 261 261 261 260 259 262 263 263 263 264 264 265 266 266 267 268 268 269 269
269 268 268 267 266 266 267 267 268 268 268 269 269 269 268 268 267 266 265 263 262 261 260 259 260 260 260 260 262 263 264 264 264 264 265 265 266 266 267 268 268 269 270
270 270 270 269 268 267 267 267 268 269 269 269 269 269 270 269 268 267 266 264 263 261 259 259 260 260 260 261 263 263 263 264 264 265 266 266 266 266 266 267 268 269 269
272 271 270 269 269 268 267 268 269 270 269 268 269 269 269 269 268 268 266 265 264 262 259 258 259 260 261 263 263 263 263 264 264 265 265 266 265 266 267 267 268 269 269
274 273 272 271 271 270 270 270 271 271 270 270 270 270 269 269 269 269 268 267 265 263 261 260 260 261 263 263 263 263 263 264 265 265 266 266 266 266 266 267 268 269 269
276 275 273 272 272 273 273 273 273 272 272 271 271 271 270 270 269 269 269 268 267 265 262 261 262 263 264 264 262 262 263 263 265 265 265 266 266 266 266 267 267 268 269
277 276 275 275 275 275 275 274 273 274 274 273 272 272 272 270 269 270 270 269 267 265 264 262 263 264 265 265 264 263 263 264 264 265 266 266 267 267 266 266 266 267 269
279 278 278 278 278 277 277 276 276 275 275 274 273 272 272 271 271 271 271 269 267 267 265 263 264 266 266 266 265 264 265 264 264 265 266 266 267 268 267 266 266 266 267
279 279 279 280 280 278 277 278 278 277 277 275 274 273 272 272 272 273 272 270 268 267 264 263 265 267 267 267 267 266 266 265 264 264 265 265 266 266 267 266 266 266 266
282 281 281 281 280 279 278 279 278 278 278 276 275 274 274 273 272 271 272 270 268 266 264 264 266 267 268 267 267 267 265 265 264 264 264 264 265 266 266 266 266 266 265
283 282 282 282 282 281 280 279 279 278 278 278 276 276 275 274 272 272 271 270 268 266 265 266 267 267 267 268 268 268 266 264 263 263 264 264 264 264 265 265 265 266 266
283 283 284 284 284 284 284 281 280 279 279 279 278 278 277 275 273 272 271 271 270 267 266 268 269 269 267 268 268 267 265 265 264 264 264 264 263 264 264 264 265 266 266
283 283 284 285 285 285 284 283 282 281 281 280 280 279 277 275 273 273 273 273 270 268 268 269 270 269 267 267 266 265 265 264 264 264 264 265 264 264 264 264 264 266 268
283 284 285 285 286 286 284 283 283 283 282 281 280 279 277 275 274 275 275 273 271 271 271 271 270 268 267 266 266 265 265 265 264 264 264 264 265 266 266 265 265 266 268
284 284 285 285 286 287 286 284 283 283 282 281 280 279 277 276 276 277 276 274 273 273 272 269 268 268 268 267 267 267 266 265 265 264 264 264 265 267 267 267 266 267 267
285 285 285 285 286 286 285 285 284 284 283 281 280 279 279 279 278 278 277 275 275 274 272 269 268 269 269 269 268 267 266 266 265 265 264 263 264 265 267 267 267 267 266
285 286 286 286 286 285 284 284 284 284 284 283 282 281 281 281 281 279 278 276 275 274 272 270 268 267 267 268 267 267 267 267 266 266 265 264 264 264 266 266 266 266 265
286 286 287 287 286 285 284 284 284 283 283 284 283 283 283 282 281 280 278 277 275 274 272 270 268 267 267 267 267 268 268 268 267 267 266 264 264 265 265 265 266 266 265
287 287 287 287 287 285 283 283 283 283 283 284 284 284 284 283 282 281 280 279 276 274 272 270 269 269 269 268 267 267 267 267 267 267 266 265 265 265 265 266 266 265 265
287 287 287 287 286 285 284 284 283 283 283 283 283 283 283 283 282 281 281 279 278 276 275 274 273 271 270 268 266 266 265 265 266 266 266 266 265 264 264 265 265 265 265
287 287 287 287 286 285 284 284 284 283 282 282 282 282 282 282 281 281 281 280 278 278 277 276 275 272 270 268 268 267 266 266 265 266 266 265 266 265 265 265 264 263 263
287 287 287 287 287 286 285 285 285 284 283 282 282 282 283 283 281 279 278 277 277 277 277 277 275 273 271 269 269 269 268 268 268 267 266 264 264 265 265 263 261 261 262
Height
5709 5710 5711 5712 5714 5715 5717 5718 5719 5719 5720 5722 5723 5724 5725 5727 5728 5729 5730 5730 5731 5731 5732 5732 5732 5732 5733 5734 5735 5737 5739 5740 5741 5742 5744 5745 5746 5746 5746 5746 5746 5747 5746
5700 5701 5702 5703 5705 5705 5706 5707 5708 5709 5709 5710 5711 5712 5713 5714 5715 5716 5717 5718 5718 5719 5720 5720 5720 5721 5721 5722 5724 5725 5727 5729 5730 5731 5732 5734 5736 5736 5736 5736 5736 5736 5736
5691 5692 5693 5694 5695 5696 5696 5697 5698 5698 5698 5699 5699 5700 5700 5701 5702 5704 5705 5705 5706 5707 5708 5708 5709 5710 5710 5711 5713 5714 5715 5717 5718 5719 5720 5722 5724 5725 5726 5725 5725 5725 5724
5682 5682 5683 5684 5685 5686 5686 5686 5687 5687 5687 5687 5687 5688 5688 5689 5690 5691 5691 5692 5693 5694 5695 5696 5697 5697 5698 5700 5701 5702 5703 5705 5706 5707 5708 5709 5710 5711 5713 5714 5714 5713 5713
5672 5673 5674 5674 5675 5675 5676 5676 5676 5676 5676 5676 5676 5676 5676 5676 5677 5677 5678 5679 5679 5681 5682 5683 5684 5685 5686 5687 5689 5690 5691 5692 5693 5695 5695 5696 5697 5697 5698 5700 5701 5701 5701
5663 5664 5664 5664 5664 5665 5665 5665 5665 5666 5665 5665 5664 5664 5664 5664 5664 5665 5665 5666 5666 5668 5669 5670 5671 5672 5673 5675 5676 5677 5678 5679 5680 5681 5682 5683 5684 5685 5684 5685 5687 5687 5688
5655 5654 5654 5654 5654 5654 5654 5654 5654 5654 5654 5653 5653 5653 5652 5652 5652 5653 5653 5653 5654 5655 5656 5657 5658 5659 5661 5662 5663 5664 5665 5666 5667 5668 5669 5669 5670 5670 5670 5670 5672 5673 5674
5646 5645 5644 5644 5644 5643 5643 5643 5643 5642 5642 5641 5641 5641 5640 5640 5640 5640 5640 5640 5641 5642 5643 5644 5645 5646 5647 5648 5649 5650 5651 5652 5653 5654 5654 5655 5656 5656 5656 5656 5656 5657 5659
5636 5635 5635 5634 5633 5632 5632 5631 5631 5630 5629 5629 5629 5629 5628 5628 5628 5628 5627 5628 5628 5629 5629 5630 5631 5632 5633 5633 5634 5635 5637 5637 5638 5639 5640 5640 5641 5641 5641 5641 5642 5642 5643
5627 5625 5624 5623 5622 5621 5621 5620 5619 5618 5617 5617 5616 5616 5616 5616 5615 5615 5614 5614 5615 5615 5615 5616 5617 5617 5618 5618 5619 5620 5621 5622 5623 5624 5624 5625 5625 5626 5626 5626 5627 5627 5628
5617 5615 5614 5613 5611 5610 5609 5608 5607 5606 5605 5604 5604 5603 5602 5602 5601 5601 5600 5600 5600 5600 5601 5601 5602 5602 5602 5602 5603 5604 5605 5606 5607 5608 5608 5610 5610 5610 5611 5611 5612 5613 5614
5606 5605 5603 5602 5601 5599 5598 5597 5595 5594 5593 5591 5590 5590 5589 5588 5588 5587 5586 5586 5585 5585 5586 5586 5587 5587 5587 5587 5587 5588 5589 5590 5591 5593 5593 5595 5595 5595 5596 5596 5597 5599 5600
5596 5595 5593 5592 5590 5588 5586 5585 5583 5582 5580 5579 5577 5577 5576 5575 5574 5573 5572 5571 5571 5571 5571 5571 5572 5572 5572 5573 5573 5573 5574 5575 5575 5576 5578 5579 5580 5581 5581 5582 5583 5584 5585
5585 5584 5582 5580 5578 5576 5575 5573 5571 5569 5568 5566 5565 5564 5563 5562 5560 5559 5558 5557 5557 5556 5556 5557 5557 5557 5558 5558 5558 5558 5559 5560 5561 5562 5563 5564 5565 5566 5567 5567 5568 5569 5570
5575 5573 5571 5569 5567 5565 5563 5561 5559 5557 5555 5554 5552 5550 5549 5547 5546 5545 5544 5543 5543 5542 5542 5542 5542 5542 5542 5543 5543 5543 5544 5545 5547 5548 5549 5550 5551 5552 5552 5553 5554 5555 5556
5564 5562 5560 5558 5555 5553 5551 5549 5547 5545 5543 5541 5539 5537 5535 5533 5532 5531 5530 5530 5530 5529 5529 5528 5528 5528 5528 5528 5528 5529 5530 5531 5533 5534 5535 5536 5537 5538 5539 5540 5541 5542 5543
5553 5550 5548 5546 5544 5542 5539 5537 5535 5532 5530 5528 5525 5523 5521 5520 5519 5518 5517 5516 5516 5516 5515 5515 5515 5515 5515 5515 5515 5515 5516 5518 5519 5520 5521 5522 5523 5524 5525 5526 5528 5529 5530
5541 5539 5537 5535 5532 5530 5527 5525 5522 5519 5517 5514 5512 5510 5508 5507 5506 5505 5504 5503 5502 5502 5502 5502 5501 5501 5502 5502 5502 5502 5502 5504 5506 5507 5508 5509 5510 5512 5512 5513 5515 5517 5518
5530 5528 5525 5523 5520 5518 5515 5512 5510 5507 5504 5501 5499 5497 5496 5495 5493 5492 5491 5490 5489 5489 5488 5488 5488 5489 5489 5489 5489 5489 5489 5491 5493 5494 5495 5497 5498 5500 5500 5501 5503 5504 5505
5518 5516 5513 5511 5508 5505 5503 5500 5497 5494 5491 5489 5487 5485 5484 5482 5481 5479 5478 5477 5476 5476 5475 5475 5475 5476 5476 5477 5476 5476 5477 5479 5481 5482 5483 5484 5485 5487 5487 5488 5490 5491 5493
5506 5504 5501 5499 5496 5493 5490 5488 5485 5482 5479 5477 5475 5473 5471 5470 5468 5467 5465 5464 5463 5463 5463 5463 5463 5463 5464 5464 5464 5464 5465 5466 5468 5469 5471 5472 5473 5474 5475 5476 5477 5479 5480
5495 5492 5489 5487 5483 5480 5478 5475 5473 5470 5468 5466 5463 5461 5459 5458 5456 5454 5453 5451 5450 5450 5450 5450 5451 5451 5452 5452 5453 5453 5453 5454 5455 5457 5459 5460 5461 5462 5464 5464 5466 5467 5467
5483 5480 5477 5475 5472 5468 5466 5463 5461 5458 5456 5454 5452 5450 5448 5446 5444 5442 5441 5440 5439 5438 5438 5438 5439 5440 5440 5441 5441 5442 5442 5443 5444 5445 5447 5448 5449 5451 5452 5453 5454 5455 5456
5471 5468 5465 5462 5460 5456 5453 5451 5449 5447 5445 5443 5441 5439 5438 5436 5434 5432 5430 5429 5428 5428 5428 5428 5428 5429 5429 5430 5431 5431 5432 5433 5434 5435 5436 5437 5438 5440 5441 5442 5443 5444 5445
5459 5456 5453 5450 5448 5445 5442 5439 5437 5435 5434 5432 5430 5429 5427 5425 5424 5423 5421 5420 5420 5418 5418 5418 5418 5419 5420 5420 5421 5421 5422 5423 5424 5424 5425 5426 5428 5429 5430 5431 5433 5434 5436
5447 5444 5441 5438 5436 5433 5431 5428 5426 5424 5422 5421 5419 5418 5417 5416 5415 5414 5413 5412 5411 5410 5409 5409 5409 5409 5410 5411 5412 5412 5412 5413 5414 5414 5415 5416 5417 5419 5420 5421 5423 5424 5426